Regional Weather Roundup
Issued by NWS

Home | Current Version | Previous Version | Text Only | Print | Product List | Glossary On
Versions: 1 2 3 4 5 6 7 8 9 10 11 12 13 14 15 16 17 18 19 20 21 22 23 24 25 26 27 28 29 30 31 32 33 34 35 36 37 38 39 40 41 42 43 44 45 46
000
ASUS46 KSEW 221210
RWRWA

WASHINGTON REGIONAL WEATHER ROUNDUP
NATIONAL WEATHER SERVICE SEATTLE WA
500 AM PDT WED OCT 22 2014

NOTE:"FAIR" INDICATES FEW OR NO CLOUDS BELOW 12,000 FEET WITH NO
SIGNIFICANT WEATHER AND/OR OBSTRUCTIONS TO VISIBILITY.

WAZ505-507>509-221300-
SEATTLE, TACOMA, EVERETT, AND VICINITY

CITY           SKY/WX    TMP DP  RH WIND       PRES   REMARKS
EVERETT        LGT RAIN  53  49  86 SE13G22   29.66S
6HR MIN TEMP:  53; 6HR MAX TEMP:  57; 6HR PCP:  0.21;

BOEING FIELD   LGT RAIN  58  51  78 SE10      29.66R
6HR MIN TEMP:  57; 6HR MAX TEMP:  61; 6HR PCP:  0.12;

RENTON         LGT RAIN  54  53  97 E8        29.65F
6HR MIN TEMP:  54; 6HR MAX TEMP:  57; 6HR PCP:  0.10;

SEATAC AIRPORT LGT RAIN  56  51  84 S16G24    29.66F
6HR MIN TEMP:  56; 6HR MAX TEMP:  60; 6HR PCP:  0.10;

JBLM-MCCHORD   LGT RAIN  55  54  97 S9        29.67S
6HR MIN TEMP:  55; 6HR MAX TEMP:  60; 6HR PCP:  0.12;

PUYALLUP       NOT AVBL
JBLM-FT LEWIS  LGT RAIN  55  54  94 SE6       29.67R
6HR MIN TEMP:  55; 6HR MAX TEMP:  59; 6HR PCP:  0.10;

TACOMA NARROWS RAIN      55  51  86 S12       29.67S
6HR MIN TEMP:  55; 6HR MAX TEMP:  60; 6HR PCP:  0.10;

$$

WAZ001-503-506-510-514-515-221300-
NORTH INTERIOR

CITY           SKY/WX    TMP DP  RH WIND       PRES   REMARKS
BELLINGHAM     LGT RAIN  56  50  80 SE18G29   29.60R
6HR MIN TEMP:  56; 6HR MAX TEMP:  62; 6HR PCP:  0.11;

FRIDAY HARBOR  CLOUDY    54  51  90 SE16G26   29.59R
6HR MIN TEMP:  54; 6HR MAX TEMP:  57; 6HR PCP:  0.02;

EASTSOUND      LGT RAIN  55  52  88 S9G20     29.56F
PORT ANGELES   LGT RAIN  54  52  93 CALM      29.57S
6HR MIN TEMP:  52; 6HR MAX TEMP:  55; 6HR PCP:  0.32;

NAS WHIDBEY    CLOUDY    58  50  75 SE26G36   29.62S
6HR MIN TEMP:  57; 6HR MAX TEMP:  61; 6HR PCP: TRACE;

BURLINGTON     CLOUDY   N/A N/A N/A SE12G18   29.65R
$$

WAZ020-022-039-040-504-511-512-221300-
SOUTHWEST INTERIOR

CITY           SKY/WX    TMP DP  RH WIND       PRES   REMARKS
SHELTON        LGT RAIN  53  51  93 SE12      29.62F FOG
6HR MIN TEMP:  53; 6HR MAX TEMP:  58; 6HR PCP:  0.23;

OLYMPIA        LGT RAIN  55  52  89 S15G22    29.67S FOG
6HR MIN TEMP:  54; 6HR MAX TEMP:  58; 6HR PCP:  0.24;

CHEHALIS       LGT RAIN  55  54  94 S12G20    29.68S
KELSO          CLOUDY    55  50  82 SE18G29   29.76S
6HR MIN TEMP:  55; 6HR MAX TEMP:  61;

VANCOUVER      CLOUDY    59  50  72 SE9       29.78F
6HR MIN TEMP:  55; 6HR MAX TEMP:  59; 6HR PCP:  0.05;

SCAPPOOSE, OR  LGT RAIN  56  52  86 VRB6      29.76F
6HR MIN TEMP:  54; 6HR MAX TEMP:  56; 6HR PCP:  0.16;

PORTLAND, OR   CLOUDY    59  53  80 SE10      29.79F
6HR MIN TEMP:  54; 6HR MAX TEMP:  59; 6HR PCP:  0.05;

$$

WAZ021-516-517-221300-
WASHINGTON COAST

CITY           SKY/WX    TMP DP  RH WIND       PRES   REMARKS
FORKS          CLOUDY    54  53  97 W3        29.58S
6HR MIN TEMP:  54; 6HR MAX TEMP:  58; 6HR PCP:  2.14;

HOQUIAM        CLOUDY    59  57  93 S12       29.63R
6HR MIN TEMP:  55; 6HR MAX TEMP:  59; 6HR PCP:  0.58;

ASTORIA, OR    HVY RAIN  59  56  89 S25G39    29.66R FOG
6HR MIN TEMP:  57; 6HR MAX TEMP:  60; 6HR PCP:  0.29;

$$

WAZ019-023-024-040-518-519-221300-
CASCADE MOUNTAINS AND COLUMBIA GORGE

CITY           SKY/WX    TMP DP  RH WIND       PRES   REMARKS
STAMPEDE PASS  NOT AVBL
TROUTDALE, OR  CLOUDY    56  52  86 E10       29.78F
6HR MIN TEMP:  55; 6HR MAX TEMP:  56; 6HR PCP:  0.08;

THE DALLES, OR CLOUDY    53  48  83 NW7       29.84F
6HR MIN TEMP:  50; 6HR MAX TEMP:  54;

$$

WAZ026-027-041>044-520-521-221300-
EAST SLOPES

CITY           SKY/WX    TMP DP  RH WIND       PRES   REMARKS
OMAK           LGT RAIN  47  44  90 S10       29.84F
6HR MIN TEMP:  47; 6HR MAX TEMP:  52; 6HR PCP:  0.02;

WENATCHEE      CLOUDY    50  43  77 E8        29.82F
6HR MIN TEMP:  46; 6HR MAX TEMP:  52;

ELLENSBURG     CLOUDY    52  42  69 CALM      29.82F
6HR MIN TEMP:  44; 6HR MAX TEMP:  52; 6HR PCP:  0.01;

YAKIMA         CLOUDY    51  44  77 CALM      29.84F
6HR MIN TEMP:  42; 6HR MAX TEMP:  52;

$$

WAZ028-034-035-221300-
COLUMBIA BASIN

CITY           SKY/WX    TMP DP  RH WIND       PRES   REMARKS
EPHRATA        CLOUDY    47  44  90 N7        29.85F
6HR MIN TEMP:  43; 6HR MAX TEMP:  48; 6HR PCP:  0.01;

MOSES LAKE     CLOUDY    50  41  71 E9        29.85F
6HR MIN TEMP:  45; 6HR MAX TEMP:  50; 6HR PCP: TRACE;

PASCO          CLOUDY    52  45  77 CALM      29.87F
6HR MIN TEMP:  46; 6HR MAX TEMP:  52;

HERMISTON, OR  CLOUDY    46  40  79 CALM      29.86F
6HR MIN TEMP:  41; 6HR MAX TEMP:  50;

$$

WAZ036>038-221300-
NORTHEAST WASHINGTON

CITY           SKY/WX    TMP DP  RH WIND       PRES   REMARKS
SPOKANE GEIGER MOCLDY    45  38  76 SE12      29.92F
6HR MIN TEMP:  42; 6HR MAX TEMP:  45;

SPOKANE FELTS  PTCLDY    44  39  82 NE5       29.94F
6HR MIN TEMP:  43; 6HR MAX TEMP:  47;

FAIRCHILD AFB  MOCLDY    44  38  79 SE8       29.92F
6HR MIN TEMP:  40; 6HR MAX TEMP:  44; 6HR PCP: TRACE;

COEURDALENE,ID PTCLDY    39  36  87 CALM      29.96S
6HR MIN TEMP:  37; 6HR MAX TEMP:  48;

DEER PARK      PTCLDY    37  36  96 NE5       29.94F
6HR MIN TEMP:  32; 6HR MAX TEMP:  43;

$$

WAZ029>033-221300-
SOUTHEAST WASHINGTON

CITY           SKY/WX    TMP DP  RH WIND       PRES   REMARKS
PULLMAN        PTCLDY    43  39  86 E12       29.98S
6HR MIN TEMP:  39; 6HR MAX TEMP:  45;

LEWISTON, ID   PTCLDY    44  41  89 SE7       29.98S
6HR MIN TEMP:  43; 6HR MAX TEMP:  47;

WALLA WALLA    CLOUDY    59  36  42 S10       29.88F
6HR MIN TEMP:  47; 6HR MAX TEMP:  59;

PENDLETON, OR  CLOUDY    53  38  56 SE5       29.88F
6HR MIN TEMP:  42; 6HR MAX TEMP:  54; 6HR PCP: TRACE;

$$



USA.gov is the U.S. government's official web portal to all federal, state and local government web resources and services.